This is the latest recevied weather packets stored in our database for station/object DL9GRB-13. If no packets are shown the sender has not sent any weather packets the latest 10 day(s).
| Time | Temp. | Humidity | Pressure | Rain* | Wind** | Luminosity | Snow |
|---|---|---|---|---|---|---|---|
| 1777220405 | 11.67° C | 35% | 1023.6 hPa | 0 mm | - | 85 W/m² | - |
| 1777220225 | 11.67° C | 32% | 1023.5 hPa | 0 mm | - | 93 W/m² | - |
| 1777220045 | 11.67° C | 34% | 1023.7 hPa | 0 mm | - | 102 W/m² | - |
| 1777219865 | 11.67° C | 34% | 1023.6 hPa | 0 mm | - | 104 W/m² | - |
| 1777219685 | 11.67° C | 33% | 1023.7 hPa | 0 mm | - | 112 W/m² | - |
| 1777219505 | 11.67° C | 33% | 1023.6 hPa | 0 mm | - | 120 W/m² | - |
| 1777219325 | 11.67° C | 33% | 1023.7 hPa | 0 mm | - | 123 W/m² | - |
| 1777219145 | 11.67° C | 33% | 1023.6 hPa | 0 mm | - | 122 W/m² | - |
| 1777218965 | 11.67° C | 33% | 1023.8 hPa | 0 mm | - | 127 W/m² | - |
| 1777218785 | 11.67° C | 33% | 1023.9 hPa | 0 mm | - | 134 W/m² | - |
| 1777218605 | 12.22° C | 32% | 1023.8 hPa | 0 mm | - | 134 W/m² | - |
| 1777218425 | 12.22° C | 32% | 1023.7 hPa | 0 mm | - | 144 W/m² | - |
| 1777218245 | 12.22° C | 31% | 1023.8 hPa | 0 mm | - | 151 W/m² | - |
| 1777218065 | 12.22° C | 32% | 1023.9 hPa | 0 mm | - | 151 W/m² | - |
| 1777217885 | 12.22° C | 31% | 1023.9 hPa | 0 mm | - | 145 W/m² | - |
| 1777217705 | 12.22° C | 33% | 1023.9 hPa | 0 mm | - | 148 W/m² | - |
| 1777217525 | 12.22° C | 32% | 1023.7 hPa | 0 mm | - | 156 W/m² | - |
| 1777217345 | 12.22° C | 32% | 1024 hPa | 0 mm | - | 172 W/m² | - |
| 1777217165 | 12.22° C | 31% | 1024 hPa | 0 mm | - | 198 W/m² | - |
| 1777216985 | 12.78° C | 31% | 1024 hPa | 0 mm | - | 195 W/m² | - |
| 1777216805 | 12.78° C | 31% | 1024 hPa | 0 mm | - | 191 W/m² | - |
| 1777216625 | 12.78° C | 32% | 1024 hPa | 0 mm | - | 200 W/m² | - |
| 1777216445 | 12.78° C | 31% | 1024.1 hPa | 0 mm | - | 208 W/m² | - |
| 1777216265 | 12.78° C | 30% | 1024.2 hPa | 0 mm | - | 191 W/m² | - |
| 1777216085 | 12.78° C | 31% | 1024 hPa | 0 mm | - | 202 W/m² | - |
* Rain latest hour (hover to see other rain measurements)
** Current wind speed in m/s (hover to see current wind gust speed)